User: anonymous   Login
Location: Gro�wechsungen
(51.4926°N, 10.6901°E)
Time: 05:23:51
(UTC+00:00)
Language:

NOSS 3-2 (A) - Orbit

View from above orbital plane
View from above orbital plane
View from above satellite
View from above satellite

Ground track
Ground track

The orbit data is extracted from the following two-line orbital elements,

1 28095U 03054A   21198.88737587 0.00000000  00000-0  00000-0 0    03
2 28095  63.4157  99.2077 0440538 359.8325   0.1675 13.41404661    04
Epoch (UTC): 17 July 2021 21:17:49
Eccentricity: 0.0440538
inclination: 63.4157°
perigee height: 774 km
apogee height: 1433 km
right ascension of ascending node: 99.2077°
argument of perigee: 359.8325°
revolutions per day: 13.41404661
mean anomaly at epoch: 0.1675°
orbit number at epoch: 0

The dashed part of the orbit path shows where the satellite is in the earth's shadow,  

DLR